Year,Month,Day,Hour,Minute,Value (Times are PST for temperature in C)
2013,04,25,00,00,11.00
2013,04,25,00,01,11.00
2013,04,25,00,02,11.00
2013,04,25,00,03,11.00
2013,04,25,00,04,11.00
2013,04,25,00,05,11.00
2013,04,25,00,06,11.00
2013,04,25,00,07,11.00
2013,04,25,00,08,11.10
2013,04,25,00,09,11.10
2013,04,25,00,10,11.10
2013,04,25,00,11,11.10
2013,04,25,00,12,11.10
2013,04,25,00,13,11.10
2013,04,25,00,14,11.10
2013,04,25,00,15,11.20
2013,04,25,00,16,11.20
2013,04,25,00,17,11.20
2013,04,25,00,18,11.30
2013,04,25,00,19,11.30
2013,04,25,00,20,11.30
2013,04,25,00,21,11.30
2013,04,25,00,22,11.30
2013,04,25,00,23,11.30
2013,04,25,00,24,11.40
2013,04,25,00,25,11.40
2013,04,25,00,26,11.40
2013,04,25,00,27,11.40
2013,04,25,00,28,11.40
2013,04,25,00,29,11.40
2013,04,25,00,30,11.40
2013,04,25,00,31,11.40
2013,04,25,00,32,11.40
2013,04,25,00,33,11.50
2013,04,25,00,34,11.50
2013,04,25,00,35,11.50
2013,04,25,00,36,11.60
2013,04,25,00,37,11.60
2013,04,25,00,38,11.60
2013,04,25,00,39,11.60
2013,04,25,00,40,11.60
2013,04,25,00,41,11.60
2013,04,25,00,42,11.60
2013,04,25,00,43,11.60
2013,04,25,00,44,11.60
2013,04,25,00,45,11.60
2013,04,25,00,46,11.60
2013,04,25,00,47,11.60
2013,04,25,00,48,11.60
2013,04,25,00,49,11.50
2013,04,25,00,50,11.50
2013,04,25,00,51,11.40
2013,04,25,00,52,11.30
2013,04,25,00,53,11.20
2013,04,25,00,54,11.10
2013,04,25,00,55,11.00
2013,04,25,00,56,10.90
2013,04,25,00,57,10.80
2013,04,25,00,58,10.70
2013,04,25,00,59,10.60
2013,04,25,01,00,10.50
2013,04,25,01,01,10.50
2013,04,25,01,02,10.40
2013,04,25,01,03,10.30
2013,04,25,01,04,10.30
2013,04,25,01,05,10.30
2013,04,25,01,06,10.30
2013,04,25,01,07,10.30
2013,04,25,01,08,10.20
2013,04,25,01,09,10.20
2013,04,25,01,10,10.20
2013,04,25,01,11,10.20
2013,04,25,01,12,10.20
2013,04,25,01,13,10.20
2013,04,25,01,14,10.20
2013,04,25,01,15,10.30
2013,04,25,01,16,10.30
2013,04,25,01,17,10.30
2013,04,25,01,18,10.30
2013,04,25,01,19,10.30
2013,04,25,01,20,10.30
2013,04,25,01,21,10.30
2013,04,25,01,22,10.30
2013,04,25,01,23,10.30
2013,04,25,01,24,10.30
2013,04,25,01,25,10.30
2013,04,25,01,26,10.30
2013,04,25,01,27,10.40
2013,04,25,01,28,10.40
2013,04,25,01,29,10.40
2013,04,25,01,30,10.40
2013,04,25,01,31,10.40
2013,04,25,01,32,10.40
2013,04,25,01,33,10.40
2013,04,25,01,34,10.40
2013,04,25,01,35,10.40
2013,04,25,01,36,10.40
2013,04,25,01,37,10.40
2013,04,25,01,38,10.40
2013,04,25,01,39,10.50
2013,04,25,01,40,10.60
2013,04,25,01,41,10.60
2013,04,25,01,42,10.60
2013,04,25,01,43,10.60
2013,04,25,01,44,10.60
2013,04,25,01,45,10.60
2013,04,25,01,46,10.60
2013,04,25,01,47,10.60
2013,04,25,01,48,10.60
2013,04,25,01,49,10.60
2013,04,25,01,50,10.60
2013,04,25,01,51,10.60
2013,04,25,01,52,10.60
2013,04,25,01,53,10.60
2013,04,25,01,54,10.60
2013,04,25,01,55,10.60
2013,04,25,01,56,10.60
2013,04,25,01,57,10.60
2013,04,25,01,58,10.60
2013,04,25,01,59,10.60
2013,04,25,02,00,10.60
2013,04,25,02,01,10.60
2013,04,25,02,02,10.70
2013,04,25,02,03,10.70
2013,04,25,02,04,10.70
2013,04,25,02,05,10.70
2013,04,25,02,06,10.70
2013,04,25,02,07,10.70
2013,04,25,02,08,10.70
2013,04,25,02,09,10.70
2013,04,25,02,10,10.80
2013,04,25,02,11,10.80
2013,04,25,02,12,10.80
2013,04,25,02,13,10.80
2013,04,25,02,14,10.80
2013,04,25,02,15,10.70
2013,04,25,02,16,10.70
2013,04,25,02,17,10.70
2013,04,25,02,18,10.70
2013,04,25,02,19,10.70
2013,04,25,02,20,10.70
2013,04,25,02,21,10.70
2013,04,25,02,22,10.70
2013,04,25,02,23,10.70
2013,04,25,02,24,10.70
2013,04,25,02,25,10.60
2013,04,25,02,26,10.60
2013,04,25,02,27,10.60
2013,04,25,02,28,10.60
2013,04,25,02,29,10.60
2013,04,25,02,30,10.60
2013,04,25,02,31,10.50
2013,04,25,02,32,10.50
2013,04,25,02,33,10.50
2013,04,25,02,34,10.40
2013,04,25,02,35,10.40
2013,04,25,02,36,10.40
2013,04,25,02,37,10.40
2013,04,25,02,38,10.40
2013,04,25,02,39,10.40
2013,04,25,02,40,10.40
2013,04,25,02,41,10.40
2013,04,25,02,42,10.30
2013,04,25,02,43,10.30
2013,04,25,02,44,10.30
2013,04,25,02,45,10.30
2013,04,25,02,46,10.30
2013,04,25,02,47,10.30
2013,04,25,02,48,10.30
2013,04,25,02,49,10.30
2013,04,25,02,50,10.30
2013,04,25,02,51,10.30
2013,04,25,02,52,10.30
2013,04,25,02,53,10.30
2013,04,25,02,54,10.30
2013,04,25,02,55,10.30
2013,04,25,02,56,10.30
2013,04,25,02,57,10.30
2013,04,25,02,58,10.30
2013,04,25,02,59,10.30
2013,04,25,03,00,10.30
2013,04,25,03,01,10.20
2013,04,25,03,02,10.20
2013,04,25,03,03,10.20
2013,04,25,03,04,10.20
2013,04,25,03,05,10.20
2013,04,25,03,06,10.20
2013,04,25,03,07,10.20
2013,04,25,03,08,10.20
2013,04,25,03,09,10.20
2013,04,25,03,10,10.10
2013,04,25,03,11,10.10
2013,04,25,03,12,10.10
2013,04,25,03,13,10.10
2013,04,25,03,14,10.10
2013,04,25,03,15,10.10
2013,04,25,03,16,10.10
2013,04,25,03,17,10.10
2013,04,25,03,18,10.00
2013,04,25,03,19,10.00
2013,04,25,03,20,10.00
2013,04,25,03,21,10.00
2013,04,25,03,22,9.90
2013,04,25,03,23,9.90
2013,04,25,03,24,9.90
2013,04,25,03,25,9.90
2013,04,25,03,26,9.80
2013,04,25,03,27,9.80
2013,04,25,03,28,9.80
2013,04,25,03,29,9.70
2013,04,25,03,30,9.70
2013,04,25,03,31,9.70
2013,04,25,03,32,9.70
2013,04,25,03,33,9.70
2013,04,25,03,34,9.60
2013,04,25,03,35,9.60
2013,04,25,03,36,9.60
2013,04,25,03,37,9.60
2013,04,25,03,38,9.60
2013,04,25,03,39,9.50
2013,04,25,03,40,9.50
2013,04,25,03,41,9.50
2013,04,25,03,42,9.40
2013,04,25,03,43,9.40
2013,04,25,03,44,9.40
2013,04,25,03,45,9.40
2013,04,25,03,46,9.30
2013,04,25,03,47,9.30
2013,04,25,03,48,9.30
2013,04,25,03,49,9.20
2013,04,25,03,50,9.20
2013,04,25,03,51,9.20
2013,04,25,03,52,9.20
2013,04,25,03,53,9.10
2013,04,25,03,54,9.10
2013,04,25,03,55,9.10
2013,04,25,03,56,9.10
2013,04,25,03,57,9.10
2013,04,25,03,58,9.10
2013,04,25,03,59,9.00
2013,04,25,04,00,8.90
2013,04,25,04,01,8.80
2013,04,25,04,02,8.70
2013,04,25,04,03,8.60
2013,04,25,04,04,8.50
2013,04,25,04,05,8.40
2013,04,25,04,06,8.30
2013,04,25,04,07,8.20
2013,04,25,04,08,8.10
2013,04,25,04,09,8.10
2013,04,25,04,10,8.00
2013,04,25,04,11,8.00
2013,04,25,04,12,7.90
2013,04,25,04,13,7.90
2013,04,25,04,14,7.90
2013,04,25,04,15,7.90
2013,04,25,04,16,7.80
2013,04,25,04,17,7.80
2013,04,25,04,18,7.80
2013,04,25,04,19,7.70
2013,04,25,04,20,7.70
2013,04,25,04,21,7.70
2013,04,25,04,22,7.70
2013,04,25,04,23,7.60
2013,04,25,04,24,7.60
2013,04,25,04,25,7.60
2013,04,25,04,26,7.70
2013,04,25,04,27,7.70
2013,04,25,04,28,7.70
2013,04,25,04,29,7.70
2013,04,25,04,30,7.70
2013,04,25,04,31,7.70
2013,04,25,04,32,7.70
2013,04,25,04,33,7.70
2013,04,25,04,34,7.70
2013,04,25,04,35,7.70
2013,04,25,04,36,7.70
2013,04,25,04,37,7.70
2013,04,25,04,38,7.70
2013,04,25,04,39,7.70
2013,04,25,04,40,7.80
2013,04,25,04,41,7.80
2013,04,25,04,42,7.80
2013,04,25,04,43,7.90
2013,04,25,04,44,8.00
2013,04,25,04,45,8.00
2013,04,25,04,46,8.10
2013,04,25,04,47,8.10
2013,04,25,04,48,8.10
2013,04,25,04,49,8.10
2013,04,25,04,50,8.10
2013,04,25,04,51,8.10
2013,04,25,04,52,8.00
2013,04,25,04,53,8.00
2013,04,25,04,54,8.00
2013,04,25,04,55,8.00
2013,04,25,04,56,8.00
2013,04,25,04,57,8.00
2013,04,25,04,58,8.10
2013,04,25,04,59,8.00
2013,04,25,05,00,8.00
2013,04,25,05,01,8.00
2013,04,25,05,02,8.00
2013,04,25,05,03,7.90
2013,04,25,05,04,7.90
2013,04,25,05,05,7.90
2013,04,25,05,06,7.80
2013,04,25,05,07,7.80
2013,04,25,05,08,7.80
2013,04,25,05,09,7.80
2013,04,25,05,10,7.80
2013,04,25,05,11,7.80
2013,04,25,05,12,7.90
2013,04,25,05,13,7.90
2013,04,25,05,14,8.00
2013,04,25,05,15,8.10
2013,04,25,05,16,8.20
2013,04,25,05,17,8.20
2013,04,25,05,18,8.30
2013,04,25,05,19,8.40
2013,04,25,05,20,8.50
2013,04,25,05,21,8.50
2013,04,25,05,22,8.60
2013,04,25,05,23,8.60
2013,04,25,05,24,8.60
2013,04,25,05,25,8.70
2013,04,25,05,26,8.70
2013,04,25,05,27,8.70
2013,04,25,05,28,8.70
2013,04,25,05,29,8.70
2013,04,25,05,30,8.70
2013,04,25,05,31,8.70
2013,04,25,05,32,8.70
2013,04,25,05,33,8.70
2013,04,25,05,34,8.80
2013,04,25,05,35,8.80
2013,04,25,05,36,8.80
2013,04,25,05,37,8.70
2013,04,25,05,38,8.70
2013,04,25,05,39,8.70
2013,04,25,05,40,8.70
2013,04,25,05,41,8.70
2013,04,25,05,42,8.70
2013,04,25,05,43,8.80
2013,04,25,05,44,8.80
2013,04,25,05,45,8.70
2013,04,25,05,46,8.70
2013,04,25,05,47,8.70
2013,04,25,05,48,8.70
2013,04,25,05,49,8.70
2013,04,25,05,50,8.70
2013,04,25,05,51,8.70
2013,04,25,05,52,8.70
2013,04,25,05,53,8.70
2013,04,25,05,54,8.80
2013,04,25,05,55,8.80
2013,04,25,05,56,8.80
2013,04,25,05,57,8.80
2013,04,25,05,58,8.80
2013,04,25,05,59,8.80
2013,04,25,06,00,8.80
2013,04,25,06,01,8.80
2013,04,25,06,02,8.80
2013,04,25,06,03,8.80
2013,04,25,06,04,8.70
2013,04,25,06,05,8.70
2013,04,25,06,06,8.60
2013,04,25,06,07,8.60
2013,04,25,06,08,8.50
2013,04,25,06,09,8.40
2013,04,25,06,10,8.30
2013,04,25,06,11,8.20
2013,04,25,06,12,8.10
2013,04,25,06,13,8.00
2013,04,25,06,14,7.90
2013,04,25,06,15,7.90
2013,04,25,06,16,7.90
2013,04,25,06,17,7.80
2013,04,25,06,18,7.80
2013,04,25,06,19,7.80
2013,04,25,06,20,7.80
2013,04,25,06,21,7.90
2013,04,25,06,22,7.90
2013,04,25,06,23,8.00
2013,04,25,06,24,8.10
2013,04,25,06,25,8.20
2013,04,25,06,26,8.20
2013,04,25,06,27,8.30
2013,04,25,06,28,8.40
2013,04,25,06,29,8.50
2013,04,25,06,30,8.60
2013,04,25,06,31,8.60
2013,04,25,06,32,8.70
2013,04,25,06,33,8.80
2013,04,25,06,34,8.80
2013,04,25,06,35,8.90
2013,04,25,06,36,8.90
2013,04,25,06,37,9.00
2013,04,25,06,38,9.00
2013,04,25,06,39,9.10
2013,04,25,06,40,9.10
2013,04,25,06,41,9.10
2013,04,25,06,42,9.10
2013,04,25,06,43,9.10
2013,04,25,06,44,9.00
2013,04,25,06,45,8.90
2013,04,25,06,46,8.90
2013,04,25,06,47,8.80
2013,04,25,06,48,8.80
2013,04,25,06,49,8.80
2013,04,25,06,50,8.80
2013,04,25,06,51,8.80
2013,04,25,06,52,8.80
2013,04,25,06,53,8.90
2013,04,25,06,54,9.00
2013,04,25,06,55,9.10
2013,04,25,06,56,9.10
2013,04,25,06,57,9.20
2013,04,25,06,58,9.30
2013,04,25,06,59,9.40
2013,04,25,07,00,9.50
2013,04,25,07,01,9.60
2013,04,25,07,02,9.60
2013,04,25,07,03,9.70
2013,04,25,07,04,9.70
2013,04,25,07,05,9.80
2013,04,25,07,06,9.80
2013,04,25,07,07,9.80
2013,04,25,07,08,9.90
2013,04,25,07,09,9.90
2013,04,25,07,10,9.90
2013,04,25,07,11,9.90
2013,04,25,07,12,9.90
2013,04,25,07,13,10.00
2013,04,25,07,14,10.00
2013,04,25,07,15,10.00
2013,04,25,07,16,10.00
2013,04,25,07,17,10.00
2013,04,25,07,18,10.10
2013,04,25,07,19,10.10
2013,04,25,07,20,10.10
2013,04,25,07,21,10.10
2013,04,25,07,22,10.10
2013,04,25,07,23,10.10
2013,04,25,07,24,10.20
2013,04,25,07,25,10.20
2013,04,25,07,26,10.20
2013,04,25,07,27,10.30
2013,04,25,07,28,10.30
2013,04,25,07,29,10.40
2013,04,25,07,30,10.40
2013,04,25,07,31,10.50
2013,04,25,07,32,10.60
2013,04,25,07,33,10.60
2013,04,25,07,34,10.70
2013,04,25,07,35,10.70
2013,04,25,07,36,10.80
2013,04,25,07,37,10.80
2013,04,25,07,38,10.80
2013,04,25,07,39,10.80
2013,04,25,07,40,10.90
2013,04,25,07,41,10.90
2013,04,25,07,42,10.90
2013,04,25,07,43,11.00
2013,04,25,07,44,11.00
2013,04,25,07,45,11.00
2013,04,25,07,46,11.10
2013,04,25,07,47,11.10
2013,04,25,07,48,11.10
2013,04,25,07,49,11.10
2013,04,25,07,50,11.10
2013,04,25,07,51,11.10
2013,04,25,07,52,11.20
2013,04,25,07,53,11.20
2013,04,25,07,54,11.20
2013,04,25,07,55,11.20
2013,04,25,07,56,11.20
2013,04,25,07,57,11.20
2013,04,25,07,58,11.20
2013,04,25,07,59,11.20
2013,04,25,08,00,11.20
2013,04,25,08,01,11.20
2013,04,25,08,02,11.20
2013,04,25,08,03,11.20
2013,04,25,08,04,11.20
2013,04,25,08,05,11.20
2013,04,25,08,06,11.20
2013,04,25,08,07,11.30
2013,04,25,08,08,11.30
2013,04,25,08,09,11.30
2013,04,25,08,10,11.30
2013,04,25,08,11,11.30
2013,04,25,08,12,11.30
2013,04,25,08,13,11.30
2013,04,25,08,14,11.30
2013,04,25,08,15,11.30
2013,04,25,08,16,11.30
2013,04,25,08,17,11.30
2013,04,25,08,18,11.30
2013,04,25,08,19,11.30
2013,04,25,08,20,11.30
2013,04,25,08,21,11.30
2013,04,25,08,22,11.40
2013,04,25,08,23,11.40
2013,04,25,08,24,11.40
2013,04,25,08,25,11.40
2013,04,25,08,26,11.40
2013,04,25,08,27,11.40
2013,04,25,08,28,11.40
2013,04,25,08,29,11.40
2013,04,25,08,30,11.40
2013,04,25,08,31,11.40
2013,04,25,08,32,11.40
2013,04,25,08,33,11.40
2013,04,25,08,34,11.40
2013,04,25,08,35,11.40
2013,04,25,08,36,11.40
2013,04,25,08,37,11.40
2013,04,25,08,38,11.40
2013,04,25,08,39,11.40
2013,04,25,08,40,11.40
2013,04,25,08,41,11.30
2013,04,25,08,42,11.30
2013,04,25,08,43,11.30
2013,04,25,08,44,11.30
2013,04,25,08,45,11.30
2013,04,25,08,46,11.30
2013,04,25,08,47,11.30
2013,04,25,08,48,11.30
2013,04,25,08,49,11.30
2013,04,25,08,50,11.30
2013,04,25,08,51,11.40
2013,04,25,08,52,11.40
2013,04,25,08,53,11.40
2013,04,25,08,54,11.40
2013,04,25,08,55,11.40
2013,04,25,08,56,11.40
2013,04,25,08,57,11.50
2013,04,25,08,58,11.50
2013,04,25,08,59,11.50
2013,04,25,09,00,11.60
2013,04,25,09,01,11.60
2013,04,25,09,02,11.60
2013,04,25,09,03,11.60
2013,04,25,09,04,11.60
2013,04,25,09,05,11.60
2013,04,25,09,06,11.60
2013,04,25,09,07,11.60
2013,04,25,09,08,11.60
2013,04,25,09,09,11.60
2013,04,25,09,10,11.60
2013,04,25,09,11,11.60
2013,04,25,09,12,11.60
2013,04,25,09,13,11.60
2013,04,25,09,14,11.60
2013,04,25,09,15,11.60
2013,04,25,09,16,11.60
2013,04,25,09,17,11.60
2013,04,25,09,18,11.70
2013,04,25,09,19,11.70
2013,04,25,09,20,11.70
2013,04,25,09,21,11.70
2013,04,25,09,22,11.70
2013,04,25,09,23,11.70
2013,04,25,09,24,11.70
2013,04,25,09,25,11.80
2013,04,25,09,26,11.80
2013,04,25,09,27,11.80
2013,04,25,09,28,11.80
2013,04,25,09,29,11.80
2013,04,25,09,30,11.80
2013,04,25,09,31,11.80
2013,04,25,09,32,11.80
2013,04,25,09,33,11.80
2013,04,25,09,34,11.90
2013,04,25,09,35,11.90
2013,04,25,09,36,11.90
2013,04,25,09,37,12.00
2013,04,25,09,38,12.00
2013,04,25,09,39,12.10
2013,04,25,09,40,12.10
2013,04,25,09,41,12.10
2013,04,25,09,42,12.10
2013,04,25,09,43,12.10
2013,04,25,09,44,12.10
2013,04,25,09,45,12.10
2013,04,25,09,46,12.10
2013,04,25,09,47,12.20
2013,04,25,09,48,12.20
2013,04,25,09,49,12.20
2013,04,25,09,50,12.20
2013,04,25,09,51,12.20
2013,04,25,09,52,12.10
2013,04,25,09,53,12.10
2013,04,25,09,54,12.10
2013,04,25,09,55,12.10
2013,04,25,09,56,12.10
2013,04,25,09,57,12.20
2013,04,25,09,58,12.20
2013,04,25,09,59,12.20
2013,04,25,10,00,12.20
2013,04,25,10,01,12.30
2013,04,25,10,02,12.30
2013,04,25,10,03,12.30
2013,04,25,10,04,12.30
2013,04,25,10,05,12.40
2013,04,25,10,06,12.40
2013,04,25,10,07,12.40
2013,04,25,10,08,12.40
2013,04,25,10,09,12.40
2013,04,25,10,10,12.40
2013,04,25,10,11,12.40
2013,04,25,10,12,12.40
2013,04,25,10,13,12.50
2013,04,25,10,14,12.50
2013,04,25,10,15,12.50
2013,04,25,10,16,12.50
2013,04,25,10,17,12.60
2013,04,25,10,18,12.60
2013,04,25,10,19,12.60
2013,04,25,10,20,12.60
2013,04,25,10,21,12.60
2013,04,25,10,22,12.60
2013,04,25,10,23,12.60
2013,04,25,10,24,12.60
2013,04,25,10,25,12.70
2013,04,25,10,26,12.70
2013,04,25,10,27,12.70
2013,04,25,10,28,12.80
2013,04,25,10,29,12.80
2013,04,25,10,30,12.80
2013,04,25,10,31,12.90
2013,04,25,10,32,13.00
2013,04,25,10,33,13.00
2013,04,25,10,34,13.10
2013,04,25,10,35,13.10
2013,04,25,10,36,13.00
2013,04,25,10,37,13.00
2013,04,25,10,38,13.00
2013,04,25,10,39,12.90
2013,04,25,10,40,13.00
2013,04,25,10,41,13.00
2013,04,25,10,42,13.00
2013,04,25,10,43,13.00
2013,04,25,10,44,13.00
2013,04,25,10,45,12.90
2013,04,25,10,46,12.90
2013,04,25,10,47,12.80
2013,04,25,10,48,12.80
2013,04,25,10,49,12.80
2013,04,25,10,50,12.80
2013,04,25,10,51,12.80
2013,04,25,10,52,12.80
2013,04,25,10,53,12.80
2013,04,25,10,54,12.80
2013,04,25,10,55,12.80
2013,04,25,10,56,12.80
2013,04,25,10,57,12.80
2013,04,25,10,58,12.80
2013,04,25,10,59,12.80
2013,04,25,11,00,12.80
2013,04,25,11,01,12.80
2013,04,25,11,02,12.80
2013,04,25,11,03,12.90
2013,04,25,11,04,12.90
2013,04,25,11,05,12.90
2013,04,25,11,06,13.00
2013,04,25,11,07,13.00
2013,04,25,11,08,13.00
2013,04,25,11,09,13.10
2013,04,25,11,10,13.10
2013,04,25,11,11,13.10
2013,04,25,11,12,13.10
2013,04,25,11,13,13.20
2013,04,25,11,14,13.20
2013,04,25,11,15,13.20
2013,04,25,11,16,13.10
2013,04,25,11,17,13.10
2013,04,25,11,18,13.10
2013,04,25,11,19,13.10
2013,04,25,11,20,13.00
2013,04,25,11,21,13.00
2013,04,25,11,22,13.00
2013,04,25,11,23,13.10
2013,04,25,11,24,13.10
2013,04,25,11,25,13.10
2013,04,25,11,26,13.10
2013,04,25,11,27,13.00
2013,04,25,11,28,13.00
2013,04,25,11,29,13.10
2013,04,25,11,30,13.10
2013,04,25,11,31,13.10
2013,04,25,11,32,13.20
2013,04,25,11,33,13.30
2013,04,25,11,34,13.50
2013,04,25,11,35,13.60
2013,04,25,11,36,13.60
2013,04,25,11,37,13.70
2013,04,25,11,38,13.70
2013,04,25,11,39,13.80
2013,04,25,11,40,13.80
2013,04,25,11,41,13.80
2013,04,25,11,42,13.70
2013,04,25,11,43,13.60
2013,04,25,11,44,13.60
2013,04,25,11,45,13.60
2013,04,25,11,46,13.70
2013,04,25,11,47,13.70
2013,04,25,11,48,13.80
2013,04,25,11,49,13.70
2013,04,25,11,50,13.70
2013,04,25,11,51,13.70
2013,04,25,11,52,13.70
2013,04,25,11,53,13.60
2013,04,25,11,54,13.60
2013,04,25,11,55,13.60
2013,04,25,11,56,13.50
2013,04,25,11,57,13.50
2013,04,25,11,58,13.40
2013,04,25,11,59,13.40
2013,04,25,12,00,13.40
2013,04,25,12,01,13.40
2013,04,25,12,02,13.50
2013,04,25,12,03,13.50
2013,04,25,12,04,13.60
2013,04,25,12,05,13.60
2013,04,25,12,06,13.60
2013,04,25,12,07,13.50
2013,04,25,12,08,13.40
2013,04,25,12,09,13.40
2013,04,25,12,10,13.40
2013,04,25,12,11,13.30
2013,04,25,12,12,13.30
2013,04,25,12,13,13.30
2013,04,25,12,14,13.30
2013,04,25,12,15,13.30
2013,04,25,12,16,13.40
2013,04,25,12,17,13.40
2013,04,25,12,18,13.50
2013,04,25,12,19,13.50
2013,04,25,12,20,13.60
2013,04,25,12,21,13.70
2013,04,25,12,22,13.80
2013,04,25,12,23,13.90
2013,04,25,12,24,14.00
2013,04,25,12,25,13.90
2013,04,25,12,26,13.90
2013,04,25,12,27,14.00
2013,04,25,12,28,14.00
2013,04,25,12,29,14.10
2013,04,25,12,30,14.10
2013,04,25,12,31,14.10
2013,04,25,12,32,14.10
2013,04,25,12,33,14.10
2013,04,25,12,34,14.10
2013,04,25,12,35,14.20
2013,04,25,12,36,14.20
2013,04,25,12,37,14.20
2013,04,25,12,38,14.20
2013,04,25,12,39,14.20
2013,04,25,12,40,14.20
2013,04,25,12,41,14.20
2013,04,25,12,42,14.20
2013,04,25,12,43,14.20
2013,04,25,12,44,14.20
2013,04,25,12,45,14.20
2013,04,25,12,46,14.20
2013,04,25,12,47,14.20
2013,04,25,12,48,14.20
2013,04,25,12,49,14.10
2013,04,25,12,50,14.20
2013,04,25,12,51,14.20
2013,04,25,12,52,14.20
2013,04,25,12,53,14.30
2013,04,25,12,54,14.30
2013,04,25,12,55,14.40
2013,04,25,12,56,14.40
2013,04,25,12,57,14.40
2013,04,25,12,58,14.50
2013,04,25,12,59,14.50
2013,04,25,13,00,14.60
2013,04,25,13,01,14.70
2013,04,25,13,02,14.90
2013,04,25,13,03,15.00
2013,04,25,13,04,15.00
2013,04,25,13,05,15.00
2013,04,25,13,06,15.00
2013,04,25,13,07,15.00
2013,04,25,13,08,15.00
2013,04,25,13,09,15.00
2013,04,25,13,10,15.00
2013,04,25,13,11,15.00
2013,04,25,13,12,15.00
2013,04,25,13,13,15.10
2013,04,25,13,14,15.20
2013,04,25,13,15,15.20
2013,04,25,13,16,15.20
2013,04,25,13,17,15.30
2013,04,25,13,18,15.30
2013,04,25,13,19,15.30
2013,04,25,13,20,15.30
2013,04,25,13,21,15.30
2013,04,25,13,22,15.30
2013,04,25,13,23,15.30
2013,04,25,13,24,15.20
2013,04,25,13,25,15.20
2013,04,25,13,26,15.20
2013,04,25,13,27,15.20
2013,04,25,13,28,15.20
2013,04,25,13,29,15.30
2013,04,25,13,30,15.30
2013,04,25,13,31,15.40
2013,04,25,13,32,15.30
2013,04,25,13,33,15.30
2013,04,25,13,34,15.30
2013,04,25,13,35,15.20
2013,04,25,13,36,15.20
2013,04,25,13,37,15.20
2013,04,25,13,38,15.20
2013,04,25,13,39,15.20
2013,04,25,13,40,15.10
2013,04,25,13,41,15.10
2013,04,25,13,42,15.00
2013,04,25,13,43,15.00
2013,04,25,13,44,15.00
2013,04,25,13,45,15.00
2013,04,25,13,46,15.00
2013,04,25,13,47,15.00
2013,04,25,13,48,14.90
2013,04,25,13,49,14.90
2013,04,25,13,50,14.80
2013,04,25,13,51,14.80
2013,04,25,13,52,14.70
2013,04,25,13,53,14.60
2013,04,25,13,54,14.60
2013,04,25,13,55,14.60
2013,04,25,13,56,14.60
2013,04,25,13,57,14.60
2013,04,25,13,58,14.70
2013,04,25,13,59,14.70
2013,04,25,14,00,14.80
2013,04,25,14,01,14.90
2013,04,25,14,02,15.00
2013,04,25,14,03,15.00
2013,04,25,14,04,15.00
2013,04,25,14,05,15.10
2013,04,25,14,06,15.20
2013,04,25,14,07,15.20
2013,04,25,14,08,15.20
2013,04,25,14,09,15.20
2013,04,25,14,10,15.20
2013,04,25,14,11,15.20
2013,04,25,14,12,15.20
2013,04,25,14,13,15.20
2013,04,25,14,14,15.20
2013,04,25,14,15,15.20
2013,04,25,14,16,15.20
2013,04,25,14,17,15.20
2013,04,25,14,18,15.30
2013,04,25,14,19,15.30
2013,04,25,14,20,15.30
2013,04,25,14,21,15.30
2013,04,25,14,22,15.40
2013,04,25,14,23,15.40
2013,04,25,14,24,15.40
2013,04,25,14,25,15.40
2013,04,25,14,26,15.40
2013,04,25,14,27,15.30
2013,04,25,14,28,15.30
2013,04,25,14,29,15.40
2013,04,25,14,30,15.40
2013,04,25,14,31,15.40
2013,04,25,14,32,15.40
2013,04,25,14,33,15.50
2013,04,25,14,34,15.50
2013,04,25,14,35,15.60
2013,04,25,14,36,15.60
2013,04,25,14,37,15.60
2013,04,25,14,38,15.60
2013,04,25,14,39,15.70
2013,04,25,14,40,15.60
2013,04,25,14,41,15.60
2013,04,25,14,42,15.50
2013,04,25,14,43,15.50
2013,04,25,14,44,15.50
2013,04,25,14,45,15.50
2013,04,25,14,46,15.40
2013,04,25,14,47,15.30
2013,04,25,14,48,15.30
2013,04,25,14,49,15.30
2013,04,25,14,50,15.30
2013,04,25,14,51,15.20
2013,04,25,14,52,15.10
2013,04,25,14,53,15.00
2013,04,25,14,54,15.00
2013,04,25,14,55,15.00
2013,04,25,14,56,15.00
2013,04,25,14,57,15.00
2013,04,25,14,58,15.00
2013,04,25,14,59,15.00
2013,04,25,15,00,15.00
2013,04,25,15,01,15.00
2013,04,25,15,02,15.00
2013,04,25,15,03,15.00
2013,04,25,15,04,15.00
2013,04,25,15,05,15.00
2013,04,25,15,06,15.00
2013,04,25,15,07,15.00
2013,04,25,15,08,15.00
2013,04,25,15,09,15.00
2013,04,25,15,10,15.00
2013,04,25,15,11,15.00
2013,04,25,15,12,15.00
2013,04,25,15,13,15.20
2013,04,25,15,14,15.20
2013,04,25,15,15,15.20
2013,04,25,15,16,15.30
2013,04,25,15,17,15.30
2013,04,25,15,18,15.40
2013,04,25,15,19,15.40
2013,04,25,15,20,15.50
2013,04,25,15,21,15.60
2013,04,25,15,22,15.70
2013,04,25,15,23,15.80
2013,04,25,15,24,15.90
2013,04,25,15,25,16.00
2013,04,25,15,26,16.10
2013,04,25,15,27,16.20
2013,04,25,15,28,16.20
2013,04,25,15,29,16.30
2013,04,25,15,30,16.50
2013,04,25,15,31,16.50
2013,04,25,15,32,16.60
2013,04,25,15,33,16.70
2013,04,25,15,34,16.80
2013,04,25,15,35,17.00
2013,04,25,15,36,17.10
2013,04,25,15,37,17.10
2013,04,25,15,38,17.00
2013,04,25,15,39,16.90
2013,04,25,15,40,16.90
2013,04,25,15,41,16.80
2013,04,25,15,42,16.70
2013,04,25,15,43,16.50
2013,04,25,15,44,16.30
2013,04,25,15,45,16.00
2013,04,25,15,46,15.70
2013,04,25,15,47,15.50
2013,04,25,15,48,15.30
2013,04,25,15,49,15.20
2013,04,25,15,50,15.20
2013,04,25,15,51,15.10
2013,04,25,15,52,15.10
2013,04,25,15,53,15.00
2013,04,25,15,54,15.00
2013,04,25,15,55,15.10
2013,04,25,15,56,15.20
2013,04,25,15,57,15.20
2013,04,25,15,58,15.20
2013,04,25,15,59,15.10
2013,04,25,16,00,15.00
2013,04,25,16,01,15.00
2013,04,25,16,02,15.00
2013,04,25,16,03,15.00
2013,04,25,16,04,15.10
2013,04,25,16,05,15.20
2013,04,25,16,06,15.20
2013,04,25,16,07,15.30
2013,04,25,16,08,15.30
2013,04,25,16,09,15.30
2013,04,25,16,10,15.20
2013,04,25,16,11,15.20
2013,04,25,16,12,15.20
2013,04,25,16,13,15.10
2013,04,25,16,14,15.00
2013,04,25,16,15,15.00
2013,04,25,16,16,15.00
2013,04,25,16,17,15.00
2013,04,25,16,18,15.00
2013,04,25,16,19,15.00
2013,04,25,16,20,15.00
2013,04,25,16,21,15.00
2013,04,25,16,22,15.00
2013,04,25,16,23,15.00
2013,04,25,16,24,15.00
2013,04,25,16,25,15.00
2013,04,25,16,26,15.00
2013,04,25,16,27,15.00
2013,04,25,16,28,15.00
2013,04,25,16,29,15.00
2013,04,25,16,30,15.00
2013,04,25,16,31,15.00
2013,04,25,16,32,15.00
2013,04,25,16,33,15.00
2013,04,25,16,34,14.90
2013,04,25,16,35,14.70
2013,04,25,16,36,14.60
2013,04,25,16,37,14.50
2013,04,25,16,38,14.50
2013,04,25,16,39,14.50
2013,04,25,16,40,14.60
2013,04,25,16,41,14.50
2013,04,25,16,42,14.50
2013,04,25,16,43,14.40
2013,04,25,16,44,14.40
2013,04,25,16,45,14.30
2013,04,25,16,46,14.30
2013,04,25,16,47,14.30
2013,04,25,16,48,14.40
2013,04,25,16,49,14.50
2013,04,25,16,50,14.50
2013,04,25,16,51,14.40
2013,04,25,16,52,14.30
2013,04,25,16,53,14.20
2013,04,25,16,54,14.20
2013,04,25,16,55,14.00
2013,04,25,16,56,13.90
2013,04,25,16,57,13.90
2013,04,25,16,58,13.90
2013,04,25,16,59,14.00
2013,04,25,17,00,14.10
2013,04,25,17,01,14.10
2013,04,25,17,02,14.20
2013,04,25,17,03,14.20
2013,04,25,17,04,14.20
2013,04,25,17,05,14.20
2013,04,25,17,06,14.10
2013,04,25,17,07,14.10
2013,04,25,17,08,14.10
2013,04,25,17,09,14.10
2013,04,25,17,10,14.10
2013,04,25,17,11,14.20
2013,04,25,17,12,14.20
2013,04,25,17,13,14.20
2013,04,25,17,14,14.20
2013,04,25,17,15,14.20
2013,04,25,17,16,14.20
2013,04,25,17,17,14.20
2013,04,25,17,18,14.20
2013,04,25,17,19,14.20
2013,04,25,17,20,14.20
2013,04,25,17,21,14.10
2013,04,25,17,22,14.00
2013,04,25,17,23,13.90
2013,04,25,17,24,13.80
2013,04,25,17,25,13.70
2013,04,25,17,26,13.60
2013,04,25,17,27,13.60
2013,04,25,17,28,13.50
2013,04,25,17,29,13.50